Location: The Saddle
(36.8333°N, 80.3417°W)
Time: 10:59:24
(UTC-04:00)

Vanguard 2 Rocket - Pass Details

Date: 01 February 2023
Orbit: 555 x 3316 km, 32.9° (Epoch: 25 March)

Event Time Altitude Azimuth Distance (km) Brightness Sun altitude
Rises 13:46:52 0° 266° (W) 2,734 9.7 33.5°
Reaches altitude 10° 13:49:03 10° 260° (W) 1,826 9.0 33.4°
Maximum altitude 13:52:51 48° 184° (S) 781 8.3 33.1°
Drops below altitude 10° 13:57:33 10° 110° (ESE) 2,263 9.0 32.7°
Sets 14:00:32 0° 105° (ESE) 3,488 9.8 32.5°
